This is the latest recevied weather packets stored in our database for station/object HEBOWX. If no packets are shown the sender has not sent any weather packets the latest 10 day(s).
| Time | Temp. | Humidity | Pressure | Rain* | Wind** | Luminosity | Snow |
|---|---|---|---|---|---|---|---|
| 1778173534 | 9.44° C | 70% | 1016.1 hPa | 0 mm | - | - | - |
| 1778173234 | 8.89° C | 69% | 1016.3 hPa | 0 mm | - | - | - |
| 1778172934 | 8.89° C | 68% | 1016 hPa | 0 mm | - | - | - |
| 1778172634 | 8.89° C | 70% | 1016.1 hPa | 0 mm | - | - | - |
| 1778172335 | 8.89° C | 70% | 1016.1 hPa | 0 mm | - | - | - |
| 1778172034 | 8.89° C | 70% | 1016 hPa | 0 mm | - | - | - |
| 1778171739 | 8.89° C | 71% | 1016 hPa | 0 mm | - | - | - |
| 1778171435 | 8.89° C | 72% | 1016 hPa | 0 mm | - | - | - |
| 1778171134 | 8.89° C | 73% | 1016 hPa | 0 mm | - | - | - |
| 1778170834 | 8.89° C | 70% | 1016.1 hPa | 0 mm | - | - | - |
| 1778170534 | 8.33° C | 73% | 1016 hPa | 0 mm | - | - | - |
| 1778170234 | 8.33° C | 73% | 1015.9 hPa | 0 mm | - | - | - |
| 1778169934 | 8.33° C | 74% | 1016.1 hPa | 0 mm | - | - | - |
| 1778169634 | 8.33° C | 74% | 1015.9 hPa | 0 mm | - | - | - |
| 1778169335 | 8.33° C | 75% | 1016 hPa | 0 mm | - | - | - |
| 1778169034 | 8.33° C | 76% | 1016 hPa | 0 mm | - | - | - |
| 1778168734 | 8.33° C | 76% | 1016.1 hPa | 0 mm | - | - | - |
| 1778168434 | 7.78° C | 76% | 1016 hPa | 0 mm | - | - | - |
| 1778168135 | 7.78° C | 77% | 1016.3 hPa | 0 mm | - | - | - |
| 1778167835 | 7.78° C | 76% | 1015.9 hPa | 0 mm | - | - | - |
| 1778167534 | 7.78° C | 77% | 1016 hPa | 0 mm | - | - | - |
| 1778167234 | 7.78° C | 78% | 1015.9 hPa | 0 mm | - | - | - |
| 1778166934 | 7.22° C | 78% | 1015.7 hPa | 0 mm | - | - | - |
| 1778166634 | 7.22° C | 78% | 1016 hPa | 0 mm | - | - | - |
| 1778166335 | 7.22° C | 78% | 1015.9 hPa | 0 mm | - | - | - |
* Rain latest hour (hover to see other rain measurements)
** Current wind speed in m/s (hover to see current wind gust speed)